Погода в Шойне

Погода в Шойне : погода сейчас, прогноз погоды и архив. Всё, что Вы хотите узнать о погоде в Шойне!

Поиск расширенной информации на нашем сайте:

Полезная информация: Очки ray ban заказать очки.

Другие новости

Новости СМИ2

Главная страница сайта

Новости сайта

03.07.2017

Напоминаем, что на нашем специализированном сайте Метеоцентр.Азия вы можете получить высокодетализированные автоматические прогнозы погоды по пунктам России, СНГ и мира в авиационном формате (включающие направление и скорость ветра, видимость, явления погоды, количество и форму облачности, нижнюю и верхнюю границу облачности).

Рекомендуем: Бизнес по реализации разливного пива оборудование www.kegz.ru.

Погода в Шойне - сегодня

Время (UTC), дата Ветер
(°,м/с) 
Видим.   Явления Облачность Т
(°С)
Тd
(°С)
f(%) Тe
(°С)
Pmin
(гПа)
dP
(гПа)
Po
(мм)
O2
(г/м3)
Тmin Tmax R s Состояние
почвы
15 10.12.17 160 (Ю) 6{10}  20000 м    10/10 600 м 
[Sc]
-8.7 -8.7 100 -14  1016.2  0.6  762  318    -8.7       
18 10.12.17 160 (Ю) 6{10}  20000 м    10/10 600 м 
[Sc]
-8 -8 100 -13  1016.2  -0.1  762  317           
21 10.12.17 150 (ЮВ) 20000 м    10/10 600 м 
[Sc]
-7.6 -7.6 100 -12  1015.8  -0.3  761  316           
00 11.12.17 140 (ЮВ) 20000 м    10/10 600 м 
[Sc]
-6.6 -6.6 100 -12  1015.2  -0.7  761  315           
03 11.12.17 150 (ЮВ) 8{11}  20000 м    10/10 600 м 
[Sc]
-6.5 -6.5 100 -12  1013.6  -1.6  760  314  -8.7      31  неравномерный
сухой снег
100% 
06 11.12.17 150 (ЮВ) 9{11}  20000 м  позёмок  10/10 600 м 
[Sc]
-6.3 -6.5 98 -12  1012.8  -0.8  759  314  -8         
09 11.12.17 160 (Ю) 8{11}  20000 м  позёмок  10/10 600 м 
[Sc]
-6 -6 100 -12  1012.9  0.2  759  313           
12 11.12.17 150 (ЮВ) 7{11}  20000 м  позёмок  10/10 600 м 
[Sc]
-4.9 -4.9 100 -10  1012.5  -0.4  759  312           
15 11.12.17 160 (Ю) 7{10}  20000 м  позёмок  10/10 300 м 
[St]
-4.7 -4.9 98 -10  1011.5  -1  758  311    -4.5       
18 11.12.17 180 (Ю) 8{11}  20000 м  позёмок  10/10 300 м 
[Sc]
-3.3 -3.3 100 -8  1010.8  -0.7  758  309    -3.3       
21 11.12.17 200 (Ю) 8{11}  20000 м  позёмок  10/10 300 м 
[St]
-1.3 -1.4 99 -6  1011.8  758  307           
00 12.12.17 210 (ЮЗ) 7{10}  20000 м  позёмок  10/10 300 м 
[St]
-1.3 -1.3 100 -5  1012.6  0.9  759  307           
03 12.12.17 190 (Ю) 20000 м    10/10 300 м 
[St]
-1.6 -1.6 100 -5  1012.8  0.2  759  308  -4.7      31  неравномерный
сухой снег
100% 
06 12.12.17 180 (Ю) 8{11}  20000 м  позёмок  10/10 300 м 
[St]
-1.9 -1.9 100 -7  1012.9  759  308  -3.3         
09 12.12.17 190 (Ю) 8{11}  1000 м  позёмок  10/10 300 м 
[St]
-2.1 -1.9 100 -7  1012.9  759  308           
12 12.12.17 180 (Ю) 9{11}  20000 м  позёмок  10/10 300 м 
[St]
-2.4 -2.4 100 -8  1011.6  -0.9  758  308           
15 12.12.17 180 (Ю) 9{11}  20000 м  позёмок  10/10 300 м 
[St]
-2.3 -2.6 98 -7  1010.7  -0.8  758  308    -1.3       
18 12.12.17 200 (Ю) 12{16}  20000 м  позёмок  10/10 300 м 
[St]
-2.2 -2.3 99 -8  1010.3  -0.4  757  308    -2       
21 12.12.17 180 (Ю) 13{17}  20000 м  позёмок  10/10 300 м 
[St]
-2.6 -2.5 100 -9  1008  -2.3  756  308           
00 13.12.17 170 (Ю) 11{16}  4000 м  метель  10/10 300 м 
[St]
-3.1 -3.1 100 -9  1004.7  -3.3  753  307           
03 13.12.17 180 (Ю) 14{18}  4000 м  метель  10/10 300 м 
[St]
-3.5 -3.7 99 -10  1000.7  -4.1  750  307  -3.8      28  неравномерный
сухой снег
100% 
06 13.12.17 170 (Ю) 13{19}  4000 м  метель  10/10 300 м 
[St]
-3.4 -3.5 99 -10  996.8  -3.8  747  305           
09 13.12.17 160 (Ю) 13{19}  0500 м  сильн. снег  10/10 300 м 
[Frnb|Ns]
-3.9 -3.9 100 -11  993.2  -3.6  744  305           
12 13.12.17 170 (Ю) 14{18}  0500 м  сильн. снег  10/10 300 м 
[Frnb|Ns]
-3.3 -3.3 100 -10  989.3  -4  741  303           
15 13.12.17 180 (Ю) 14{19}  0500 м  сильн. снег  10/10 300 м 
[Frnb|Ns]
-1.9 -1.9 100 -8  985.7  -3.5  739  300    -1.9  0.6     
Время (UTC), дата Ветер
(°,м/с) 
Видим.   Явления Облачность Т
(°С)
Тd
(°С)
f(%) Тe
(°С)
Pmin
(гПа)
dP
(гПа)
Po
(мм)
O2
(г/м3)
Тmin Tmax R s Состояние
почвы

Для получения пояснительной информации подведите курсор к названию столбца.

ПОГОДА в Шойне - архив

Всё, что Вы хотите узнать о погоде в Шойне - удобно и подробно!

Выберите нужную дату (начиная с 1 января 2015* года) и нажмите кнопку "Найти".
Будут отображены архивные сводки погоды по пункту Шойна, начиная с указанной даты.


Отображать данные в формате CSV (для использования в таблицах Excel)


Внимание! Наш архив погоды предназначен исключительно для личного некоммерческого использования в познавательных целях. Если Вам необходимы официальные справки о состоянии погоды (для производственных, юридических, коммерческих и т.п. целей), обращайтесь в органы Росгидромета.

*Примечание: данная дата относится к архиву по метеостанциям СССР (Россия, СНГ, Балтия).
Архив по метеостанциям Зарубежной Европы и Азии (кроме Китая) хранится 10 дней, по другим регионам земного шара (Китай, Африка, Америка, Австралия, Океания) - 1 день.

Шойна - район местоположения метеостанции


Название, широта, долгота, высота метеостанции:
Шойна 67.9°ш. 44.1°д. 8 м над ур. моря [Российская Федерация]

Дополнительная информация

В oтличие oт бoльшинства пoгoдных сайтoв мы публикуем пoдрoбную метеoинфoрмацию в детальнoм прoфессиoнальнoм фoрмате.

Характеристики температуры и влажнoсти вoздуха измеряются на высoте 2 м в тени вдали oт зданий и деревьев.
Скoрoсть ветра измеряется на высoте 10 м (на урoвне рoста челoвека скoрoсть ветра ниже в 1.5-2 раза). Если метеoстанция нахoдится в гoрoде или в лесу, тo скoрoсть ветра занижена на 2-4 м/с пo сравнению с oткрытым местoм. Скoрoсть ветра над акватoриями крупных рек и oзёр, а также на вершинах хoлмoв на 2-5 м/с выше, чем в oбычных услoвиях.
Атмoсфернoе давление в разных тoчках местнoсти мoжет значительнo oтличаться oт давления на метеoстанции, в зависимoсти oт услoвий рельефа (при пoдъёме на 10 м давление пoнижается примернo на 1 мм рт.ст.).